Weather in Pay

Russia / Republic of Karelia     61°12′26″N   34°26′10″E
temp.,
°C
wind,
m/s
gust,
m/s
humid.,
%
clouds,
%
prec.,
mm/h
press.,
hPa
HPBL,
m
1 march, mon
mon100:00−1wsw489697 0.0 1017355
03:000wsw4109498 0.0 1017556
06:000wsw51293100 0.0 1014628
09:00+1wsw41198100 0.0 1013545
12:00+1w41199100 0.0 1011571
15:00+1w41298100 0.0 1010729
18:00+1w51399100 0.1 1007737
21:00+1w51398100 0.3 1006756
2 march, tue
tue200:000wnw5138944 0.0 1005794
03:000wnw5128861 0.1 1006795
06:00−3wnw5138930 0.0 1005556
09:00−3wnw5139028 0.0 1005610
12:00−1nw5108796 0.0 1005831
15:00−1nnw5117796 0.2 10081585
18:00−4nw3138264 0.0 1010605
21:00−6nw3138236 0.0 1012457
3 march, wed
wed300:00−7w389133 0.0 1013169
03:00−7w399417 0.0 1013262
06:00−5wnw4109395 0.0 1011439
09:00−3wnw5108997 0.0 1011624
12:00−2wnw4890100 0.0 1010565
15:00−1wnw4885100 0.1 1009860
18:00−2wsw3992100 0.0 1005448
21:00−2ssw3997100 0.9 1000545
4 march, thu
thu400:00+1wsw61397100 2.3 9941051
03:00−1w6138899 2.4 9921007
06:00−4nnw41093100 0.3 993649
09:00−5nnw3993100 0.3 995585
12:00−5n4890100 0.1 997653
15:00−5n478597 0.1 999880
18:00−7nnw3991100 0.1 1000470
21:00−8nw399485 0.1 1002362
5 march, fri
fri500:00−11nw259466 0.0 1003110
03:00−11nw259578 0.0 1005120
06:00−12nnw129699 0.0 100631
09:00−11n129593 0.1 100890
12:00−8ne1288100 0.1 1010451
15:00−8ne2389100 0.2 1011466
18:00−11ne249497 0.1 1013160
21:00−15n129595 0.1 101420